Time,TemperatureF,DewpointF,PressureIn,WindDirection,WindDirectionDegrees,WindSpeedMPH,WindSpeedGustMPH,Humidity,HourlyPrecipIn,Conditions,Clouds,dailyrainin,SoftwareType,DateUTC
2013-03-05 00:00:00,40.5,32.5,29.91,North,0,0.0,0.0,73,0.00,,,0.00,WUHU216HW,2013-03-05 06:00:00,
2013-03-05 00:05:00,40.3,32.3,29.91,North,0,0.0,0.0,73,0.00,,,0.00,WUHU216HW,2013-03-05 06:05:00,
2013-03-05 00:10:00,40.3,32.7,29.90,North,0,0.0,0.0,74,0.00,,,0.00,WUHU216HW,2013-03-05 06:10:00,
2013-03-05 00:15:00,40.1,32.5,29.89,North,0,0.0,0.0,74,0.00,,,0.00,WUHU216HW,2013-03-05 06:15:00,
2013-03-05 00:20:00,40.3,32.3,29.89,North,0,7.6,8.9,73,0.00,,,0.00,WUHU216HW,2013-03-05 06:20:00,
2013-03-05 00:25:00,40.1,32.1,29.89,NNW,338,8.3,8.9,73,0.00,,,0.00,WUHU216HW,2013-03-05 06:25:00,
2013-03-05 00:30:00,40.0,32.3,29.90,NNW,338,6.5,8.5,74,0.00,,,0.00,WUHU216HW,2013-03-05 06:30:00,
2013-03-05 00:35:00,40.0,32.7,29.91,NNW,338,4.5,6.7,75,0.00,,,0.00,WUHU216HW,2013-03-05 06:35:00,
2013-03-05 00:40:00,40.1,32.8,29.92,NNW,338,4.9,6.5,75,0.00,,,0.00,WUHU216HW,2013-03-05 06:40:00,
2013-03-05 00:45:00,40.3,32.9,29.93,North,0,4.0,7.8,75,0.00,,,0.00,WUHU216HW,2013-03-05 06:45:00,
2013-03-05 00:50:00,40.3,32.9,29.94,North,0,6.7,7.8,75,0.00,,,0.00,WUHU216HW,2013-03-05 06:50:00,
2013-03-05 00:55:00,40.3,32.9,29.94,NNW,338,4.3,6.7,75,0.00,,,0.00,WUHU216HW,2013-03-05 06:55:00,
2013-03-05 01:00:00,40.3,32.9,29.95,NNW,338,4.7,6.7,75,0.00,,,0.00,WUHU216HW,2013-03-05 07:00:00,
2013-03-05 01:05:00,40.3,32.9,29.94,North,0,6.9,6.9,75,0.00,,,0.00,WUHU216HW,2013-03-05 07:05:00,
2013-03-05 01:10:00,40.3,33.3,29.95,NNW,338,3.6,6.9,76,0.00,,,0.00,WUHU216HW,2013-03-05 07:10:00,
2013-03-05 01:15:00,40.3,33.3,29.95,North,0,0.0,6.9,76,0.00,,,0.00,WUHU216HW,2013-03-05 07:15:00,
2013-03-05 01:20:00,40.5,33.9,29.95,North,0,0.0,4.5,77,0.00,,,0.00,WUHU216HW,2013-03-05 07:20:00,
2013-03-05 01:25:00,40.3,33.7,29.95,North,0,0.0,0.0,77,0.00,,,0.00,WUHU216HW,2013-03-05 07:25:00,
2013-03-05 01:30:00,40.3,33.7,29.96,North,0,0.0,0.0,77,0.00,,,0.00,WUHU216HW,2013-03-05 07:30:00,
2013-03-05 01:35:00,40.0,33.7,29.96,North,0,0.0,0.0,78,0.00,,,0.00,WUHU216HW,2013-03-05 07:35:00,
2013-03-05 01:40:00,39.8,33.9,29.96,North,0,0.0,0.0,79,0.00,,,0.00,WUHU216HW,2013-03-05 07:40:00,
2013-03-05 01:45:00,39.8,33.9,29.97,North,0,0.0,0.0,79,0.00,,,0.00,WUHU216HW,2013-03-05 07:45:00,
2013-03-05 01:50:00,39.6,33.7,29.97,North,0,0.0,0.0,79,0.00,,,0.00,WUHU216HW,2013-03-05 07:50:00,
2013-03-05 01:55:00,39.6,33.7,29.97,North,0,0.0,0.0,79,0.00,,,0.00,WUHU216HW,2013-03-05 07:55:00,
2013-03-05 02:00:00,39.4,33.5,29.98,North,0,0.0,0.0,79,0.00,,,0.00,WUHU216HW,2013-03-05 08:00:00,
2013-03-05 02:05:00,39.2,33.3,29.98,North,0,0.0,0.0,79,0.00,,,0.00,WUHU216HW,2013-03-05 08:05:00,
2013-03-05 02:10:00,39.2,33.3,29.99,North,0,0.0,0.0,79,0.00,,,0.00,WUHU216HW,2013-03-05 08:10:00,
2013-03-05 02:15:00,39.1,33.5,29.99,North,0,0.0,0.0,80,0.00,,,0.00,WUHU216HW,2013-03-05 08:15:00,
2013-03-05 02:20:00,39.1,33.8,30.00,North,0,0.0,0.0,81,0.00,,,0.00,WUHU216HW,2013-03-05 08:20:00,
2013-03-05 02:25:00,38.7,33.7,30.00,North,0,0.0,0.0,82,0.00,,,0.00,WUHU216HW,2013-03-05 08:25:00,
2013-03-05 02:30:00,38.2,33.8,30.00,North,0,0.0,0.0,84,0.00,,,0.00,WUHU216HW,2013-03-05 08:30:00,
2013-03-05 02:35:00,37.8,33.7,30.01,NNW,338,6.9,6.9,85,0.00,,,0.00,WUHU216HW,2013-03-05 08:35:00,
2013-03-05 02:40:00,37.8,33.9,30.00,North,0,7.4,10.1,86,0.00,,,0.00,WUHU216HW,2013-03-05 08:40:00,
2013-03-05 02:45:00,37.4,33.6,30.01,NNW,338,4.7,10.1,86,0.00,,,0.00,WUHU216HW,2013-03-05 08:45:00,
2013-03-05 02:50:00,37.3,33.7,30.01,NNW,338,6.0,7.4,87,0.01,,,0.01,WUHU216HW,2013-03-05 08:50:00,
2013-03-05 02:55:00,37.1,33.9,30.01,NNW,338,5.4,7.4,88,0.01,,,0.01,WUHU216HW,2013-03-05 08:55:00,
2013-03-05 03:00:00,36.9,33.3,30.02,NNW,338,9.8,9.8,87,0.01,,,0.01,WUHU216HW,2013-03-05 09:00:00,
2013-03-05 03:05:00,36.2,33.0,30.02,NNW,338,4.5,10.5,88,0.02,,,0.02,WUHU216HW,2013-03-05 09:05:00,
2013-03-05 03:10:00,35.8,32.9,30.02,North,0,4.7,10.5,89,0.03,,,0.03,WUHU216HW,2013-03-05 09:10:00,
2013-03-05 03:15:00,35.6,32.7,30.02,NNW,338,4.7,5.4,89,0.03,,,0.03,WUHU216HW,2013-03-05 09:15:00,
2013-03-05 03:20:00,35.8,32.9,30.02,North,0,0.0,4.7,89,0.04,,,0.04,WUHU216HW,2013-03-05 09:20:00,
2013-03-05 03:25:00,36.0,33.0,30.03,North,0,0.0,4.7,89,0.04,,,0.04,WUHU216HW,2013-03-05 09:25:00,
2013-03-05 03:30:00,36.0,33.0,30.03,North,0,0.0,0.0,89,0.05,,,0.05,WUHU216HW,2013-03-05 09:30:00,
2013-03-05 03:35:00,35.6,32.7,30.03,North,0,0.0,0.0,89,0.05,,,0.05,WUHU216HW,2013-03-05 09:35:00,
2013-03-05 03:40:00,35.1,32.4,30.04,North,0,0.0,0.0,90,0.05,,,0.05,WUHU216HW,2013-03-05 09:40:00,
2013-03-05 03:45:00,34.9,32.2,30.04,North,0,0.0,0.0,90,0.04,,,0.05,WUHU216HW,2013-03-05 09:45:00,
2013-03-05 03:50:00,34.7,32.0,30.05,North,0,0.0,0.0,90,0.04,,,0.05,WUHU216HW,2013-03-05 09:50:00,
2013-03-05 03:55:00,34.7,32.3,30.05,North,0,0.0,0.0,91,0.04,,,0.05,WUHU216HW,2013-03-05 09:55:00,
2013-03-05 04:00:00,34.6,32.1,30.05,North,0,0.0,0.0,91,0.04,,,0.05,WUHU216HW,2013-03-05 10:00:00,
2013-03-05 04:05:00,34.4,32.0,30.05,North,0,0.0,0.0,91,0.03,,,0.05,WUHU216HW,2013-03-05 10:05:00,
2013-03-05 04:10:00,34.2,31.8,30.04,North,0,0.0,0.0,91,0.03,,,0.06,WUHU216HW,2013-03-05 10:10:00,
2013-03-05 04:15:00,34.0,31.9,30.05,North,0,0.0,0.0,92,0.02,,,0.06,WUHU216HW,2013-03-05 10:15:00,
2013-03-05 04:20:00,33.8,31.7,30.04,North,0,0.0,0.0,92,0.02,,,0.06,WUHU216HW,2013-03-05 10:20:00,
2013-03-05 04:25:00,33.8,31.7,30.03,North,0,0.0,0.0,92,0.01,,,0.06,WUHU216HW,2013-03-05 10:25:00,
2013-03-05 04:30:00,33.8,31.7,30.04,North,0,0.0,0.0,92,0.02,,,0.07,WUHU216HW,2013-03-05 10:30:00,
2013-03-05 04:35:00,34.2,32.0,30.03,NNW,338,1.3,1.3,92,0.02,,,0.07,WUHU216HW,2013-03-05 10:35:00,
2013-03-05 04:40:00,34.2,32.0,30.03,NNW,338,2.5,2.5,92,0.02,,,0.07,WUHU216HW,2013-03-05 10:40:00,
2013-03-05 04:45:00,34.4,32.2,30.04,NNW,338,4.7,4.7,92,0.02,,,0.07,WUHU216HW,2013-03-05 10:45:00,
2013-03-05 04:50:00,34.6,32.4,30.05,NW,315,3.4,4.7,92,0.02,,,0.07,WUHU216HW,2013-03-05 10:50:00,
2013-03-05 04:55:00,34.7,32.9,30.05,NNW,338,6.7,6.7,93,0.02,,,0.07,WUHU216HW,2013-03-05 10:55:00,
2013-03-05 05:00:00,34.9,33.0,30.06,North,0,0.0,6.7,93,0.02,,,0.07,WUHU216HW,2013-03-05 11:00:00,
2013-03-05 05:05:00,34.9,32.8,30.07,NW,315,8.1,8.1,92,0.02,,,0.07,WUHU216HW,2013-03-05 11:05:00,
2013-03-05 05:10:00,34.9,32.8,30.06,WNW,293,8.3,8.3,92,0.01,,,0.07,WUHU216HW,2013-03-05 11:10:00,
2013-03-05 05:15:00,34.9,32.8,30.06,NNW,338,6.3,8.3,92,0.01,,,0.07,WUHU216HW,2013-03-05 11:15:00,
2013-03-05 05:20:00,34.9,32.8,30.07,NNW,338,8.3,8.3,92,0.01,,,0.07,WUHU216HW,2013-03-05 11:20:00,
2013-03-05 05:25:00,35.1,32.7,30.07,NNW,338,6.9,8.3,91,0.01,,,0.07,WUHU216HW,2013-03-05 11:25:00,
2013-03-05 05:30:00,35.3,32.6,30.07,NNW,338,6.9,9.2,90,0.00,,,0.07,WUHU216HW,2013-03-05 11:30:00,
2013-03-05 05:35:00,35.3,32.6,30.07,NW,315,9.4,9.4,90,0.00,,,0.07,WUHU216HW,2013-03-05 11:35:00,
2013-03-05 05:40:00,35.5,32.5,30.08,NNW,338,6.5,9.4,89,0.00,,,0.07,WUHU216HW,2013-03-05 11:40:00,
2013-03-05 05:45:00,35.5,32.5,30.09,NNW,338,5.4,9.4,89,0.00,,,0.07,WUHU216HW,2013-03-05 11:45:00,
2013-03-05 05:50:00,35.5,32.5,30.09,NW,315,8.3,8.3,89,0.00,,,0.07,WUHU216HW,2013-03-05 11:50:00,
2013-03-05 05:55:00,35.6,32.4,30.09,NNW,338,6.3,8.7,88,0.00,,,0.07,WUHU216HW,2013-03-05 11:55:00,
2013-03-05 06:00:00,35.6,32.4,30.09,NNW,338,8.5,8.7,88,0.00,,,0.07,WUHU216HW,2013-03-05 12:00:00,
2013-03-05 06:05:00,35.6,32.4,30.10,North,0,0.0,8.5,88,0.00,,,0.07,WUHU216HW,2013-03-05 12:05:00,
2013-03-05 06:10:00,35.6,32.0,30.09,North,0,6.3,9.2,87,0.00,,,0.07,WUHU216HW,2013-03-05 12:10:00,
2013-03-05 06:15:00,35.6,32.0,30.10,NNW,338,10.5,10.5,87,0.00,,,0.07,WUHU216HW,2013-03-05 12:15:00,
2013-03-05 06:20:00,35.3,31.1,30.10,NNW,338,8.5,10.5,85,0.00,,,0.07,WUHU216HW,2013-03-05 12:20:00,
2013-03-05 06:25:00,35.1,30.4,30.10,NNW,338,8.7,11.4,83,0.00,,,0.07,WUHU216HW,2013-03-05 12:25:00,
2013-03-05 06:30:00,34.9,30.5,30.10,NNW,338,6.9,11.4,84,0.00,,,0.07,WUHU216HW,2013-03-05 12:30:00,
2013-03-05 06:35:00,34.9,30.3,30.10,North,0,9.2,9.2,83,0.00,,,0.07,WUHU216HW,2013-03-05 12:35:00,
2013-03-05 06:40:00,34.7,30.1,30.10,NNW,338,4.3,9.2,83,0.00,,,0.07,WUHU216HW,2013-03-05 12:40:00,
2013-03-05 06:45:00,34.7,30.1,30.10,NNW,338,7.4,9.2,83,0.00,,,0.07,WUHU216HW,2013-03-05 12:45:00,
2013-03-05 06:50:00,34.4,29.3,30.10,North,0,0.0,7.4,82,0.00,,,0.07,WUHU216HW,2013-03-05 12:50:00,
2013-03-05 06:55:00,34.2,29.2,30.11,NW,315,4.0,7.4,82,0.00,,,0.07,WUHU216HW,2013-03-05 12:55:00,
2013-03-05 07:00:00,33.8,28.5,30.11,NNW,338,7.6,7.6,81,0.00,,,0.07,WUHU216HW,2013-03-05 13:00:00,
2013-03-05 07:05:00,33.7,28.1,30.11,NW,315,5.1,9.8,80,0.00,,,0.07,WUHU216HW,2013-03-05 13:05:00,
2013-03-05 07:10:00,33.7,28.1,30.11,NW,315,8.9,9.8,80,0.00,,,0.07,WUHU216HW,2013-03-05 13:10:00,
2013-03-05 07:15:00,33.5,28.3,30.11,NNW,338,6.0,8.9,81,0.00,,,0.07,WUHU216HW,2013-03-05 13:15:00,
2013-03-05 07:20:00,33.5,28.3,30.11,NW,315,4.5,8.9,81,0.00,,,0.07,WUHU216HW,2013-03-05 13:20:00,
2013-03-05 07:25:00,33.7,28.4,30.12,NNW,338,7.4,8.1,81,0.00,,,0.07,WUHU216HW,2013-03-05 13:25:00,
2013-03-05 07:30:00,34.0,28.7,30.12,NW,315,5.1,8.1,81,0.00,,,0.07,WUHU216HW,2013-03-05 13:30:00,
2013-03-05 07:35:00,34.0,29.0,30.12,NW,315,3.6,7.4,82,0.00,,,0.07,WUHU216HW,2013-03-05 13:35:00,
2013-03-05 07:40:00,33.7,27.8,30.12,NW,315,5.1,9.2,79,0.00,,,0.07,WUHU216HW,2013-03-05 13:40:00,
2013-03-05 07:45:00,33.5,27.3,30.12,NNW,338,7.6,9.2,78,0.00,,,0.07,WUHU216HW,2013-03-05 13:45:00,
2013-03-05 07:50:00,33.7,27.5,30.13,NW,315,7.2,7.6,78,0.00,,,0.07,WUHU216HW,2013-03-05 13:50:00,
2013-03-05 07:55:00,33.8,25.7,30.13,NNW,338,7.6,9.4,72,0.00,,,0.07,WUHU216HW,2013-03-05 13:55:00,
2013-03-05 08:00:00,34.2,27.4,30.13,NW,315,6.3,9.4,76,0.00,,,0.07,WUHU216HW,2013-03-05 14:00:00,
2013-03-05 08:05:00,34.4,26.8,30.14,NW,315,4.3,8.1,74,0.00,,,0.07,WUHU216HW,2013-03-05 14:05:00,
2013-03-05 08:10:00,33.8,24.7,30.14,NW,315,8.3,8.3,69,0.00,,,0.07,WUHU216HW,2013-03-05 14:10:00,
2013-03-05 08:15:00,33.3,23.9,30.14,West,270,11.9,11.9,68,0.00,,,0.07,WUHU216HW,2013-03-05 14:15:00,
2013-03-05 08:20:00,33.5,23.6,30.15,WNW,293,10.1,11.9,67,0.00,,,0.07,WUHU216HW,2013-03-05 14:20:00,
2013-03-05 08:25:00,33.8,23.9,30.15,NW,315,9.2,15.7,67,0.00,,,0.07,WUHU216HW,2013-03-05 14:25:00,
2013-03-05 08:30:00,34.2,23.9,30.15,North,0,0.0,15.7,66,0.00,,,0.07,WUHU216HW,2013-03-05 14:30:00,
2013-03-05 08:35:00,34.0,23.0,30.15,NW,315,8.7,13.0,64,0.00,,,0.07,WUHU216HW,2013-03-05 14:35:00,
2013-03-05 08:40:00,34.2,24.3,30.15,WNW,293,15.7,15.7,67,0.00,,,0.07,WUHU216HW,2013-03-05 14:40:00,
2013-03-05 08:45:00,34.6,24.7,30.15,NNW,338,12.8,15.7,67,0.00,,,0.07,WUHU216HW,2013-03-05 14:45:00,
2013-03-05 08:50:00,34.2,23.2,30.16,WNW,293,6.9,15.7,64,0.00,,,0.07,WUHU216HW,2013-03-05 14:50:00,
2013-03-05 08:55:00,34.9,25.4,30.16,NNW,338,8.5,12.8,68,0.00,,,0.07,WUHU216HW,2013-03-05 14:55:00,
2013-03-05 09:00:00,35.6,25.7,30.16,NW,315,8.5,9.4,67,0.00,,,0.07,WUHU216HW,2013-03-05 15:00:00,
2013-03-05 09:05:00,34.9,23.6,30.17,North,0,10.5,11.6,63,0.00,,,0.07,WUHU216HW,2013-03-05 15:05:00,
2013-03-05 09:10:00,35.3,25.0,30.17,NW,315,7.6,11.6,66,0.00,,,0.07,WUHU216HW,2013-03-05 15:10:00,
2013-03-05 09:15:00,35.5,23.0,30.17,NW,315,12.1,12.1,60,0.00,,,0.07,WUHU216HW,2013-03-05 15:15:00,
2013-03-05 09:20:00,35.3,22.4,30.18,NW,315,9.6,12.8,59,0.00,,,0.07,WUHU216HW,2013-03-05 15:20:00,
2013-03-05 09:25:00,34.9,22.1,30.18,NNW,338,10.3,12.8,59,0.00,,,0.07,WUHU216HW,2013-03-05 15:25:00,
2013-03-05 09:30:00,36.2,24.5,30.18,NNW,338,6.5,11.4,62,0.00,,,0.07,WUHU216HW,2013-03-05 15:30:00,
2013-03-05 09:35:00,36.0,22.7,30.18,NNW,338,14.1,14.1,58,0.00,,,0.07,WUHU216HW,2013-03-05 15:35:00,
2013-03-05 09:40:00,35.8,22.1,30.19,NNW,338,11.9,14.1,57,0.00,,,0.07,WUHU216HW,2013-03-05 15:40:00,
2013-03-05 09:45:00,35.8,22.5,30.19,NW,315,9.4,14.1,58,0.00,,,0.07,WUHU216HW,2013-03-05 15:45:00,
2013-03-05 09:50:00,35.8,22.5,30.19,NW,315,8.3,12.1,58,0.00,,,0.07,WUHU216HW,2013-03-05 15:50:00,
2013-03-05 09:55:00,36.4,23.9,30.20,NW,315,6.5,12.1,60,0.00,,,0.07,WUHU216HW,2013-03-05 15:55:00,
2013-03-05 10:00:00,36.7,23.8,30.20,NW,315,10.3,10.3,59,0.00,,,0.07,WUHU216HW,2013-03-05 16:00:00,
2013-03-05 10:05:00,36.2,22.4,30.20,NW,315,9.4,10.3,57,0.00,,,0.07,WUHU216HW,2013-03-05 16:05:00,
2013-03-05 10:10:00,36.4,22.6,30.20,NNW,338,10.3,11.4,57,0.00,,,0.07,WUHU216HW,2013-03-05 16:10:00,
2013-03-05 10:15:00,36.4,23.1,30.20,NW,315,5.4,11.4,58,0.00,,,0.07,WUHU216HW,2013-03-05 16:15:00,
2013-03-05 10:20:00,36.7,22.9,30.20,NW,315,6.3,10.3,57,0.00,,,0.07,WUHU216HW,2013-03-05 16:20:00,
2013-03-05 10:25:00,37.1,22.3,30.20,NW,315,12.8,12.8,55,0.00,,,0.07,WUHU216HW,2013-03-05 16:25:00,
2013-03-05 10:30:00,37.1,23.2,30.20,NW,315,6.3,12.8,57,0.00,,,0.07,WUHU216HW,2013-03-05 16:30:00,
2013-03-05 10:35:00,37.4,22.2,30.20,NW,315,6.9,13.2,54,0.00,,,0.07,WUHU216HW,2013-03-05 16:35:00,
2013-03-05 10:40:00,37.4,22.7,30.20,NNW,338,7.4,13.2,55,0.00,,,0.07,WUHU216HW,2013-03-05 16:40:00,
2013-03-05 10:45:00,38.0,23.1,30.20,NW,315,8.1,12.3,55,0.00,,,0.07,WUHU216HW,2013-03-05 16:45:00,
2013-03-05 10:50:00,37.6,23.3,30.20,NW,315,8.9,10.7,56,0.00,,,0.07,WUHU216HW,2013-03-05 16:50:00,